{"data":{"norad_id":49757,"intl_designator":"2021-115AK","name":"STARLINK-3197","alt_names":[],"object_type":"PAYLOAD","status":"ACTIVE","operator":null,"country":"US","launch_date":"2021-12-02","launch_site_code":"AFETR","launch_vehicle":null,"mission":null,"orbit_class":"UNKNOWN","rcs_meters":null,"size_class":null,"mass_kg":null,"dimensions":null,"purposes":["comms"],"wikipedia_slug":null,"has_3d_model":false,"image_url":null,"decayed_at":null,"tle_current":{"epoch":"2026-09-19T21:49:11.009280Z","epoch_age_seconds":96307,"freshness":"FRESH","line1":"1 49757U 21115AK  26262.90915520  .00001401  00000+0  53928-4 0  9997","line2":"2 49757  53.1618 332.6989 0001271  86.5609 273.5538 15.33544313265191","mean_motion":15.33544313,"eccentricity":0.0001271,"inclination_deg":53.1618,"raan_deg":332.6989,"arg_perigee_deg":86.5609,"mean_anomaly_deg":273.5538,"bstar":5.3928e-5,"rev_number":26519,"period_min":93.900123249976,"perigee_km":464.37791061339,"apogee_km":466.11749900535,"semimajor_km":6843.3847048094,"source":"CELESTRAK","updated_at":"2026-09-20T09:00:39.410101Z"}}}